St. Johns, AZ

10:32 AM MST on November 22, 2017 (GMT -0700)
Saint Johns Industrial

Weather History for KSJN - September, 2013

Change the Weather History Date:

Sunday, September 15, 2013

  Actual Average (KLSB) Record (KLSB)
Temperature  
Mean Temperature 61 °F -  
Max Temperature 78 °F 88 °F 89 °F (2015)
Min Temperature 44 °F 54 °F 60 °F (2014)
Degree Days  
Heating Degree Days 4    
Growing Degree Days 11 (Base 50)    
Moisture  
Dew Point 50 °F    
Average Humidity 57    
Maximum Humidity 90    
Minimum Humidity 28    
Precipitation  
Precipitation 0.02 in - - ()
Sea Level Pressure  
Sea Level Pressure 29.91 in    
Wind  
Wind Speed 3 mph (ESE)    
Max Wind Speed 13 mph    
Max Gust Speed 20 mph    
Visibility 10 miles    
Events Thunderstorm    
Averages and records for this station are not official NWS values.
T = Trace of Precipitation, MM = Missing Value Source: NWS Daily Summary

Daily Weather History Graph

Daily Weather History Graph

Search for Another Location

Airport or City:

Trip Planner

Search our weather history database for the weather conditions in past years. The results will help you decide how hot, cold, wet, or windy it might be!

Date:

Astronomy

Sep. 15, 2013 Rise Set
Actual Time 6:00 AM MST 6:23 PM MST
Civil Twilight 5:35 AM MST 6:48 PM MST
Nautical Twilight 5:05 AM MST 7:18 PM MST
Astronomical Twilight 4:35 AM MST 7:48 PM MST
Moon 3:46 PM MST (9/15) 1:50 AM MST (9/15)
Length of Visible Light 13h 13m
Length of Day
12h 23m
Waxing Gibbous, 83% of the Moon is Illuminated
Sep 15
Waxing Gibbous
Sep 19
Full
Sep 26
Last Quarter
Oct 4
New
Oct 11
First Quarter

Hourly Weather History & Observations

Time (MST) Temp. Dew Point Humidity Pressure Visibility Wind Dir Wind Speed Gust Speed Precip Events Conditions
12:33 AM 60.8 °F 55.4 °F 82% 30.06 in 10.0 mi Calm Calm - N/A Thunderstorm Partly Cloudy
12:54 AM 57.9 °F 55.0 °F 90% 29.81 in 10.0 mi Calm Calm - N/A Thunderstorm Clear
1:39 AM 59.0 °F 55.4 °F 88% 30.06 in 10.0 mi Calm Calm - N/A   Partly Cloudy
1:54 AM 59.0 °F 54.0 °F 83% 29.85 in 10.0 mi Calm Calm - N/A   Clear
2:54 AM 59.0 °F 54.0 °F 83% 29.84 in 10.0 mi Calm Calm - N/A   Partly Cloudy
3:54 AM 57.9 °F 52.0 °F 81% 29.85 in 10.0 mi SSE 5.8 mph - N/A   Clear
4:54 AM 57.0 °F 51.1 °F 81% 29.85 in 10.0 mi NNE 4.6 mph - N/A   Clear
5:54 AM 54.0 °F 51.1 °F 90% 29.89 in 10.0 mi Calm Calm - 0.01 in   Clear
6:54 AM 57.0 °F 51.1 °F 81% 29.90 in 10.0 mi East 4.6 mph - N/A   Clear
7:54 AM 63.0 °F 51.1 °F 65% 29.89 in 10.0 mi Calm Calm - N/A   Clear
8:54 AM 68.0 °F 52.0 °F 56% 29.90 in 10.0 mi Variable 3.5 mph - N/A   Clear
9:54 AM 73.9 °F 51.1 °F 45% 29.88 in 10.0 mi ENE 3.5 mph - N/A   Clear
10:54 AM 75.9 °F 51.1 °F 42% 29.88 in 10.0 mi ENE 6.9 mph - N/A   Clear
11:54 AM 78.1 °F 48.9 °F 36% 29.86 in 10.0 mi Calm Calm - N/A   Clear
12:54 PM 79.0 °F 48.9 °F 35% 29.85 in 10.0 mi Variable 4.6 mph - N/A   Clear
1:54 PM 78.1 °F 46.9 °F 33% 29.83 in 10.0 mi Variable 3.5 mph - N/A   Partly Cloudy
2:54 PM 79.0 °F 46.9 °F 32% 29.82 in 10.0 mi Calm Calm - N/A   Scattered Clouds
3:15 PM 78.8 °F 46.4 °F 32% 30.08 in 10.0 mi Variable 3.5 mph - N/A Thunderstorm Partly Cloudy
3:54 PM 79.0 °F 48.0 °F 34% 29.82 in 10.0 mi NW 9.2 mph - N/A Thunderstorm Partly Cloudy
4:03 PM 80.6 °F 48.2 °F 32% 30.08 in 10.0 mi NNW 10.4 mph 16.1 mph N/A   Clear
4:54 PM 79.0 °F 48.0 °F 34% 29.82 in 10.0 mi North 6.9 mph - N/A   Clear
5:54 PM 78.1 °F 46.9 °F 33% 29.85 in 10.0 mi NNW 3.5 mph - N/A   Clear
6:54 PM 71.1 °F 53.1 °F 53% 29.87 in 10.0 mi WNW 3.5 mph - N/A   Scattered Clouds
7:54 PM 70.0 °F 50.0 °F 49% 29.89 in 10.0 mi SSE 8.1 mph - N/A   Mostly Cloudy
8:10 PM 71.6 °F 48.2 °F 43% 30.14 in 10.0 mi SSE 10.4 mph - N/A Thunderstorm Thunderstorm
8:25 PM 69.8 °F 48.2 °F 46% 30.14 in 10.0 mi South 12.7 mph - N/A   Overcast
8:54 PM 66.9 °F 52.0 °F 59% 29.89 in 10.0 mi SSE 9.2 mph 19.6 mph 0.00 in   Overcast
9:54 PM 66.0 °F 50.0 °F 56% 29.90 in 10.0 mi SSE 10.4 mph - 0.00 in   Overcast
10:54 PM 64.0 °F 52.0 °F 65% 29.89 in 10.0 mi South 9.2 mph - N/A   Partly Cloudy
11:54 PM 63.0 °F 52.0 °F 67% 29.89 in 10.0 mi ESE 5.8 mph - N/A   Clear